User: anonymous   Login
Location: ????????
(55.3155°N, 39.2900°E)
Time: 04:02:37
(UTC+00:00)
Language:

Hubble Space Telescope - Orbit

View from above orbital plane
View from above orbital plane
View from above satellite
View from above satellite

Ground track
Ground track

The orbit data is extracted from the following two-line orbital elements,

1 20580U 90037B   25341.24043269  .00011505  00000-0  40173-3 0  9999
2 20580  28.4700 309.9169 0001930 174.2687 185.7931 15.27934350759153
Epoch (UTC): 07 December 2025 05:46:13
Eccentricity: 0.0001930
inclination: 28.4700°
perigee height: 480 km
apogee height: 483 km
right ascension of ascending node: 309.9169°
argument of perigee: 174.2687°
revolutions per day: 15.27934350
mean anomaly at epoch: 185.7931°
orbit number at epoch: 75915

The dashed part of the orbit path shows where the satellite is in the earth's shadow,  

DLR